When you browse on this site, cookies collect data to enhance your experience and personalize the content and advertising you see.
Visit our Privacy Policy to learn more. By continuing to use the site, you agree to this use of cookies and data.
  • In Lithuania
  • List of Countries
  • For 7 days
  • Water Temperature
  • Weather Map
  • Weather Widgets
  • user-avatar
    Login

    Hourly Weather Surmowka

    Today, 21 August, Wednesday

    Time Temperature Precipitation Wind Pressure Humidity
    00:00 +18°C° 0 mm 3 mps 749 mmHg 71%
    01:00 +18°C° 0 mm 2 mps 749 mmHg 75%
    02:00 +17°C° 0.7 mm 2 mps 749 mmHg 79%
    03:00 +16°C° 0.7 mm 2 mps 749 mmHg 83%
    04:00 +16°C° 0.7 mm 2 mps 749 mmHg 87%
    05:00 +14°C° 2 mm 3 mps 749 mmHg 89%
    06:00 +14°C° 2 mm 4 mps 749 mmHg 91%
    07:00 +13°C° 2 mm 5 mps 749 mmHg 93%
    08:00 +13°C° 0.3 mm 5 mps 749 mmHg 93%
    09:00 +13°C° 0.3 mm 4 mps 749 mmHg 93%
    10:00 +13°C° 0.3 mm 4 mps 750 mmHg 93%
    11:00 +14°C° 0 mm 4 mps 750 mmHg 89%
    12:00 +16°C° 0 mm 3 mps 751 mmHg 85%
    13:00 +16°C° 0 mm 2 mps 751 mmHg 81%
    14:00 +17°C° 0 mm 2 mps 751 mmHg 77%
    15:00 +18°C° 0 mm 2 mps 752 mmHg 74%
    16:00 +19°C° 0 mm 2 mps 752 mmHg 70%
    17:00 +17°C° 0 mm 2 mps 752 mmHg 76%
    18:00 +16°C° 0 mm 1 mps 752 mmHg 82%
    19:00 +14°C° 0 mm 0 mps 752 mmHg 88%
    20:00 +14°C° 0 mm 1 mps 752 mmHg 89%
    21:00 +14°C° 0 mm 1 mps 752 mmHg 90%
    22:00 +14°C° 0 mm 1 mps 753 mmHg 92%
    23:00 +13°C° 0 mm 1 mps 753 mmHg 92%

    Tomorrow, 22 August, Thursday

    Time Temperature Precipitation Wind Pressure Humidity
    00:00 +13°C° 0 mm 1 mps 753 mmHg 93%
    01:00 +13°C° 0 mm 2 mps 753 mmHg 94%
    02:00 +12°C° 0 mm 1 mps 753 mmHg 93%
    03:00 +12°C° 0 mm 1 mps 753 mmHg 93%
    04:00 +12°C° 0 mm 1 mps 753 mmHg 92%
    05:00 +13°C° 0 mm 1 mps 753 mmHg 88%
    06:00 +14°C° 0 mm 1 mps 754 mmHg 83%
    07:00 +16°C° 0 mm 1 mps 754 mmHg 78%
    08:00 +17°C° 0 mm 2 mps 754 mmHg 71%
    09:00 +19°C° 0 mm 2 mps 754 mmHg 64%
    10:00 +20°C° 0 mm 2 mps 755 mmHg 57%
    11:00 +21°C° 0 mm 2 mps 754 mmHg 54%
    12:00 +21°C° 0 mm 2 mps 754 mmHg 51%
    13:00 +23°C° 0 mm 2 mps 754 mmHg 48%
    14:00 +23°C° 0 mm 2 mps 754 mmHg 49%
    15:00 +23°C° 0 mm 2 mps 754 mmHg 50%
    16:00 +23°C° 0 mm 2 mps 754 mmHg 51%
    17:00 +21°C° 0 mm 1 mps 754 mmHg 58%
    18:00 +19°C° 0 mm 1 mps 754 mmHg 65%
    19:00 +16°C° 0 mm 1 mps 753 mmHg 73%
    20:00 +16°C° 0 mm 1 mps 754 mmHg 75%
    21:00 +15°C° 0 mm 1 mps 754 mmHg 77%
    22:00 +14°C° 0 mm 1 mps 754 mmHg 80%
    23:00 +14°C° 0 mm 2 mps 754 mmHg 80%

    Day after tomorrow, 23 August, Friday

    Time Temperature Precipitation Wind Pressure Humidity
    00:00 +14°C° 0 mm 2 mps 754 mmHg 79%
    01:00 +14°C° 0 mm 2 mps 754 mmHg 79%
    02:00 +13°C° 0 mm 2 mps 754 mmHg 81%
    03:00 +13°C° 0 mm 2 mps 754 mmHg 82%
    04:00 +13°C° 0 mm 2 mps 754 mmHg 83%
    05:00 +14°C° 0 mm 2 mps 754 mmHg 79%
    06:00 +16°C° 0 mm 1 mps 754 mmHg 74%
    07:00 +18°C° 0 mm 1 mps 754 mmHg 69%
    08:00 +20°C° 0 mm 1 mps 754 mmHg 63%
    09:00 +22°C° 0 mm 1 mps 754 mmHg 57%
    10:00 +23°C° 0 mm 1 mps 754 mmHg 51%
    11:00 +24°C° 0 mm 1 mps 754 mmHg 48%
    12:00 +25°C° 0 mm 1 mps 754 mmHg 45%
    13:00 +25°C° 0 mm 1 mps 754 mmHg 42%
    14:00 +25°C° 0 mm 1 mps 754 mmHg 43%
    15:00 +25°C° 0 mm 1 mps 754 mmHg 44%
    16:00 +25°C° 0 mm 1 mps 753 mmHg 45%
    17:00 +23°C° 0 mm 1 mps 753 mmHg 52%
    18:00 +21°C° 0 mm 1 mps 753 mmHg 59%
    19:00 +18°C° 0 mm 2 mps 753 mmHg 66%
    20:00 +17°C° 0 mm 2 mps 753 mmHg 67%
    21:00 +16°C° 0 mm 2 mps 753 mmHg 69%
    22:00 +16°C° 0 mm 2 mps 753 mmHg 71%
    23:00 +15°C° 0 mm 2 mps 753 mmHg 72%

    24 August, Saturday

    Time Temperature Precipitation Wind Pressure Humidity
    00:00 +15°C° 0 mm 2 mps 753 mmHg 73%
    01:00 +14°C° 0 mm 2 mps 753 mmHg 75%
    02:00 +14°C° 0 mm 2 mps 752 mmHg 77%
    03:00 +14°C° 0 mm 2 mps 752 mmHg 78%
    04:00 +13°C° 0 mm 2 mps 752 mmHg 80%
    05:00 +15°C° 0 mm 2 mps 752 mmHg 77%
    06:00 +16°C° 0 mm 1 mps 752 mmHg 73%
    07:00 +18°C° 0 mm 1 mps 752 mmHg 70%
    08:00 +20°C° 0 mm 1 mps 752 mmHg 63%
    09:00 +22°C° 0 mm 1 mps 752 mmHg 57%
    10:00 +24°C° 0 mm 1 mps 752 mmHg 51%
    11:00 +24°C° 0 mm 2 mps 752 mmHg 48%
    12:00 +25°C° 0 mm 2 mps 752 mmHg 45%
    13:00 +26°C° 0 mm 2 mps 752 mmHg 43%
    14:00 +26°C° 0 mm 2 mps 751 mmHg 43%
    15:00 +26°C° 0 mm 1 mps 751 mmHg 44%
    16:00 +25°C° 0 mm 1 mps 751 mmHg 45%
    17:00 +23°C° 0 mm 1 mps 751 mmHg 52%
    18:00 +21°C° 0 mm 1 mps 750 mmHg 59%
    19:00 +19°C° 0 mm 1 mps 750 mmHg 67%
    20:00 +18°C° 0 mm 1 mps 750 mmHg 68%
    21:00 +18°C° 0 mm 1 mps 751 mmHg 70%
    22:00 +16°C° 0 mm 1 mps 751 mmHg 71%
    23:00 +16°C° 0 mm 1 mps 751 mmHg 73%

    25 August, Sunday

    Time Temperature Precipitation Wind Pressure Humidity
    00:00 +15°C° 0 mm 1 mps 751 mmHg 74%
    01:00 +15°C° 0 mm 1 mps 751 mmHg 76%
    02:00 +14°C° 0 mm 1 mps 751 mmHg 77%
    03:00 +14°C° 0 mm 1 mps 751 mmHg 78%
    04:00 +14°C° 0 mm 1 mps 750 mmHg 80%
    05:00 +15°C° 0 mm 2 mps 751 mmHg 76%
    06:00 +16°C° 0 mm 2 mps 751 mmHg 73%
    07:00 +18°C° 0 mm 2 mps 751 mmHg 69%
    08:00 +19°C° 0 mm 2 mps 751 mmHg 63%
    09:00 +21°C° 0 mm 3 mps 751 mmHg 57%
    10:00 +24°C° 0 mm 3 mps 752 mmHg 51%
    11:00 +25°C° 0 mm 3 mps 751 mmHg 50%
    12:00 +25°C° 0 mm 3 mps 751 mmHg 48%
    13:00 +26°C° 0 mm 3 mps 751 mmHg 46%
    14:00 +26°C° 0 mm 3 mps 751 mmHg 48%
    15:00 +25°C° 0 mm 3 mps 750 mmHg 49%
    16:00 +25°C° 0 mm 3 mps 750 mmHg 51%
    17:00 +22°C° 0 mm 3 mps 750 mmHg 57%
    18:00 +20°C° 0 mm 3 mps 750 mmHg 64%
    19:00 +18°C° 0 mm 2 mps 750 mmHg 71%
    20:00 +17°C° 0 mm 2 mps 750 mmHg 73%
    21:00 +17°C° 0 mm 2 mps 750 mmHg 75%
    22:00 +16°C° 0 mm 3 mps 750 mmHg 78%
    23:00 +14°C° 0 mm 3 mps 750 mmHg 79%

    26 August, Monday

    Time Temperature Precipitation Wind Pressure Humidity
    00:00 +14°C° 0 mm 3 mps 750 mmHg 80%
    01:00 +13°C° 0 mm 3 mps 750 mmHg 81%
    02:00 +13°C° 0 mm 3 mps 750 mmHg 82%
    03:00 +13°C° 0 mm 3 mps 749 mmHg 82%
    04:00 +13°C° 0 mm 3 mps 749 mmHg 83%
    05:00 +14°C° 0 mm 3 mps 749 mmHg 79%
    06:00 +16°C° 0 mm 3 mps 749 mmHg 75%
    07:00 +17°C° 0 mm 4 mps 749 mmHg 71%
    08:00 +19°C° 0 mm 4 mps 749 mmHg 67%
    09:00 +21°C° 0 mm 4 mps 749 mmHg 64%
    10:00 +23°C° 0 mm 4 mps 748 mmHg 60%
    11:00 +25°C° 0 mm 5 mps 748 mmHg 57%
    12:00 +26°C° 0 mm 5 mps 748 mmHg 55%
    13:00 +27°C° 0 mm 5 mps 747 mmHg 52%
    14:00 +27°C° 0 mm 5 mps 747 mmHg 53%
    15:00 +27°C° 0 mm 5 mps 746 mmHg 54%
    16:00 +27°C° 0 mm 4 mps 746 mmHg 55%
    17:00 +25°C° 0 mm 4 mps 746 mmHg 62%
    18:00 +23°C° 0 mm 4 mps 745 mmHg 68%
    19:00 +21°C° 0 mm 3 mps 745 mmHg 75%
    20:00 +20°C° 0 mm 3 mps 745 mmHg 76%
    21:00 +20°C° 0 mm 4 mps 745 mmHg 78%
    22:00 +19°C° 0 mm 4 mps 745 mmHg 79%
    23:00 +19°C° 0.1 mm 4 mps 744 mmHg 80%
    Show more